CW0506 Weather Reports


Display with metric or nautical units.
time (UTC)temp
F
wind
direction
speed
MPH
gust
MPH
rain 1hr
in
rain 24hr
in
rain mn
in
humidity
%
barometer
mb
20260905180349 74 113 1.0 5.0 0.00 0.00 0.00 76 1008.6
20260905175843 73 144 0.0 2.0 0.00 0.00 0.00 83 1008.7
20260905175338 73 223 2.0 4.0 0.00 0.00 0.00 80 1008.7
20260905174833 71 209 0.0 2.0 0.00 0.00 0.00 88 1008.9
20260905174329 71 279 1.0 2.0 0.00 0.00 0.00 88 1008.8
20260905173824 72 149 0.0 1.0 0.00 0.00 0.00 86 1008.7
20260905173321 73 226 3.0 4.0 0.00 0.00 0.00 79 1008.9
20260905172821 71 209 1.0 2.0 0.00 0.00 0.00 89 1008.9
20260905172318 70 242 0.0 0.0 0.00 0.00 0.00 88 1008.9
20260905171815 70 242 0.0 0.0 0.00 0.00 0.00 87 1008.7
20260905171311 70 242 0.0 1.0 0.00 0.00 0.00 84 1008.7
20260905170807 72 180 0.0 2.0 0.00 0.00 0.00 80 1008.9
20260905170303 73 7 1.0 4.0 0.00 0.00 0.00 77 1008.9
20260905165801 74 87 3.0 4.0 0.00 0.00 0.00 74 1008.9
20260905165258 74 105 1.0 2.0 0.00 0.00 0.00 72 1008.6
20260905164757 74 112 2.0 3.0 0.00 0.00 0.00 72 1008.7
20260905164252 74 242 1.0 2.0 0.00 0.00 0.00 76 1008.6
20260905163748 74 230 0.0 5.0 0.00 0.00 0.00 73 1008.6
20260905163244 74 25 2.0 6.0 0.00 0.00 0.00 72 1008.7
20260905162740 75 142 1.0 4.0 0.00 0.00 0.00 70 1008.6
20260905162239 75 171 1.0 5.0 0.00 0.00 0.00 69 1008.6
20260905161734 75 339 1.0 5.0 0.00 0.00 0.00 69 1008.6
20260905161233 75 91 4.0 8.0 0.00 0.00 0.00 70 1008.8
20260905160731 75 147 4.0 6.0 0.00 0.00 0.00 71 1008.6
20260905160226 75 74 4.0 9.0 0.00 0.00 0.00 71 1008.7
20260905155720 75 253 2.0 5.0 0.00 0.00 0.00 72 1008.8
20260905155219 74 154 1.0 7.0 0.00 0.00 0.00 73 1008.7
20260905154714 74 212 1.0 8.0 0.00 0.00 0.00 76 1008.6
20260905154209 74 67 3.0 9.0 0.00 0.00 0.00 71 1008.9
20260905153705 74 119 2.0 4.0 0.00 0.00 0.00 72 1008.9
20260905153200 74 145 2.0 5.0 0.00 0.00 0.00 76 1009.1
20260905152655 74 83 5.0 8.0 0.00 0.00 0.00 75 1008.9
20260905152150 74 84 3.0 15.0 0.00 0.00 0.00 73 1009.0
20260905151644 74 2 5.0 8.0 0.00 0.00 0.00 72 1008.9
20260905151140 74 33 4.0 6.0 0.00 0.00 0.00 73 1009.0
20260905150635 72 15 1.0 5.0 0.00 0.00 0.00 74 1009.2
20260905150133 71 75 1.0 5.0 0.00 0.00 0.00 77 1009.2
20260905145632 73 180 2.0 5.0 0.00 0.00 0.00 75 1009.1
20260905145131 71 114 2.0 4.0 0.00 0.00 0.00 76 1009.1
20260905144626 71 51 1.0 5.0 0.00 0.00 0.00 77 1009.0
20260905144125 71 211 0.0 7.0 0.00 0.00 0.00 78 1008.8
20260905143620 71 121 2.0 7.0 0.00 0.00 0.00 77 1008.7
20260905143115 71 116 0.0 6.0 0.00 0.00 0.00 77 1008.9
20260905142613 71 135 2.0 5.0 0.00 0.00 0.00 75 1008.8
20260905142108 72 97 3.0 8.0 0.00 0.00 0.00 75 1008.9
20260905141607 72 141 3.0 9.0 0.00 0.00 0.00 74 1008.8
20260905141104 73 155 2.0 7.0 0.00 0.00 0.00 74 1008.5
20260905140559 73 57 4.0 7.0 0.00 0.00 0.00 71 1009.0
20260905140058 73 64 2.0 5.0 0.00 0.00 0.00 75 1008.9
20260905135553 72 83 4.0 8.0 0.00 0.00 0.00 74 1008.9
20260905135054 71 87 2.0 8.0 0.00 0.00 0.00 75 1008.9
20260905134549 72 29 5.0 6.0 0.00 0.00 0.00 75 1009.1
20260905134047 71 175 2.0 4.0 0.00 0.00 0.00 77 1009.2
20260905133543 71 319 1.0 6.0 0.00 0.00 0.00 77 1009.2
20260905133043 71 195 1.0 6.0 0.00 0.00 0.00 80 1009.0
20260905132542 71 283 2.0 4.0 0.00 0.00 0.00 81 1009.1
20260905132037 71 21 0.0 4.0 0.00 0.00 0.00 80 1009.0
20260905131533 71 46 3.0 5.0 0.00 0.00 0.00 80 1009.1
20260905131028 70 352 3.0 5.0 0.00 0.00 0.00 82 1009.3
20260905130527 70 43 2.0 4.0 0.00 0.00 0.00 82 1009.2
20260905130023 71 5 2.0 2.0 0.00 0.00 0.00 79 1009.4
20260905125522 69 335 0.0 2.0 0.00 0.00 0.00 85 1009.4
20260905125017 68 356 2.0 5.0 0.00 0.00 0.00 87 1009.3
20260905124514 66 23 2.0 5.0 0.00 0.00 0.00 92 1009.5
20260905124010 64 315 1.0 3.0 0.00 0.00 0.00 97 1009.5
20260905123505 63 298 2.0 4.0 0.00 0.00 0.00 99 1009.4
20260905123001 62 51 0.0 4.0 0.00 0.00 0.00 99 1009.4
20260905122455 62 280 4.0 5.0 0.00 0.00 0.00 99 1009.5
20260905121950 61 202 0.0 3.0 0.00 0.00 0.00 99 1009.5
20260905121445 60 280 0.0 3.0 0.00 0.00 0.00 99 1009.6
20260905120944 60 17 0.0 2.0 0.00 0.00 0.00 99 1009.7
20260905120439 60 342 0.0 3.0 0.00 0.00 0.00 99 1009.5
20260905115934 59 236 2.0 2.0 0.00 0.00 0.00 99 1009.3
20260905115433 59 27 1.0 4.0 0.00 0.00 0.00 99 1009.3
20260905114923 59 324 0.0 3.0 0.00 0.00 0.00 99 1009.2
20260905114423 58 211 0.0 3.0 0.00 0.00 0.00 99 1009.3
20260905113921 58 272 1.0 2.0 0.00 0.00 0.00 99 1009.3
20260905113417 57 160 0.0 1.0 0.00 0.00 0.00 99 1009.2
20260905112912 57 150 0.0 2.0 0.00 0.00 0.00 99 1009.1
20260905112408 57 183 1.0 2.0 0.00 0.00 0.00 99 1009.1
20260905111903 57 181 0.0 2.0 0.00 0.00 0.00 99 1009.1
20260905111402 57 335 0.0 2.0 0.00 0.00 0.00 99 1008.8
20260905110856 57 199 0.0 2.0 0.00 0.00 0.00 99 1008.9
20260905110350 57 120 1.0 2.0 0.00 0.00 0.00 99 1008.9
20260905105845 57 33 0.0 1.0 0.00 0.00 0.00 99 1009.1
20260905105344 57 193 0.0 2.0 0.00 0.00 0.00 99 1008.9
20260905104839 56 138 0.0 2.0 0.00 0.00 0.00 99 1009.0
20260905104336 57 280 0.0 1.0 0.00 0.00 0.00 99 1008.6
20260905103835 57 207 1.0 1.0 0.00 0.00 0.00 99 1008.8
20260905103330 57 219 1.0 3.0 0.00 0.00 0.00 99 1008.7
20260905102826 57 308 1.0 2.0 0.00 0.00 0.00 99 1008.5
20260905102323 56 286 0.0 1.0 0.00 0.00 0.00 99 1008.5
20260905101823 57 268 0.0 2.0 0.00 0.00 0.00 99 1008.4
20260905101321 57 219 0.0 2.0 0.00 0.00 0.00 99 1008.6
20260905100815 56 9 0.0 0.0 0.00 0.00 0.00 99 1008.5
20260905100311 57 158 0.0 1.0 0.00 0.00 0.00 99 1008.5
20260905095810 57 44 0.0 1.0 0.00 0.00 0.00 99 1008.6
20260905095306 57 92 0.0 2.0 0.02 0.00 0.00 99 1008.5
20260905094800 57 152 1.0 2.0 0.02 0.00 0.00 99 1008.4
20260905094255 57 149 1.0 2.0 0.00 0.00 0.00 99 1008.4
20260905093754 57 235 0.0 2.0 0.00 0.00 0.00 99 1008.3
20260905093250 57 12 0.0 2.0 0.00 0.00 0.00 99 1008.5
20260905092746 57 24 0.0 1.0 0.00 0.00 0.00 99 1008.4
20260905092241 57 196 1.0 2.0 0.00 0.00 0.00 99 1008.3
20260905091740 57 242 0.0 3.0 0.00 0.00 0.00 99 1008.1
20260905091236 57 254 0.0 1.0 0.00 0.00 0.00 99 1008.2
20260905090734 58 246 1.0 2.0 0.00 0.00 0.00 99 1008.2
20260905090230 58 268 1.0 2.0 0.00 0.00 0.00 99 1008.0
20260905085729 58 242 2.0 3.0 0.00 0.00 0.00 99 1008.1
20260905085224 58 144 0.0 2.0 0.00 0.00 0.00 99 1008.3
20260905084719 58 41 0.0 1.0 0.00 0.00 0.00 99 1008.1
20260905084218 58 263 1.0 2.0 0.00 0.00 0.00 99 1008.1
20260905083714 58 9 0.0 2.0 0.00 0.00 0.00 99 1008.0
20260905083209 58 235 0.0 2.0 0.00 0.00 0.00 99 1008.1
20260905082705 58 229 0.0 2.0 0.00 0.00 0.00 99 1008.1
20260905082200 58 247 0.0 2.0 0.00 0.00 0.00 99 1008.2
20260905081655 58 266 0.0 2.0 0.00 0.00 0.00 99 1008.2
20260905081150 58 61 0.0 2.0 0.00 0.00 0.00 99 1008.2
20260905080650 58 277 1.0 2.0 0.00 0.00 0.00 99 1008.4
20260905080149 57 213 0.0 1.0 0.00 0.00 0.00 99 1008.1
20260905075649 58 158 1.0 2.0 0.00 0.00 0.00 99 1008.2
20260905075148 58 144 0.0 2.0 0.00 0.00 0.00 99 1008.3
20260905074647 58 254 0.0 1.0 0.00 0.00 0.00 99 1008.2
20260905074143 58 257 0.0 1.0 0.00 0.00 0.00 99 1008.3
20260905073639 58 241 0.0 1.0 0.00 0.00 0.00 99 1008.2
20260905073134 58 254 0.0 1.0 0.00 0.00 0.00 99 1008.2
20260905072633 58 55 0.0 2.0 0.00 0.00 0.00 99 1008.4
20260905072128 59 189 0.0 2.0 0.00 0.00 0.00 99 1008.2
20260905071625 59 162 0.0 1.0 0.00 0.00 0.00 99 1008.4
20260905071120 59 208 1.0 2.0 0.00 0.00 0.00 99 1008.2
20260905070616 59 144 0.0 1.0 0.00 0.00 0.00 99 1008.4
20260905070112 59 254 0.0 1.0 0.00 0.00 0.00 99 1008.5
20260905065609 59 122 0.0 0.0 0.00 0.00 0.00 99 1008.5
20260905065104 59 106 0.0 0.0 0.00 0.00 0.00 99 1008.5
20260905064559 59 273 0.0 1.0 0.00 0.00 0.00 99 1008.5
20260905064055 59 217 0.0 0.0 0.00 0.00 0.00 99 1008.4
20260905063553 60 264 1.0 2.0 0.00 0.00 0.00 99 1008.5
20260905063050 59 217 0.0 1.0 0.00 0.00 0.00 99 1008.4
20260905062544 60 217 0.0 0.0 0.00 0.00 0.00 99 1008.5
20260905062038 60 192 0.0 2.0 0.00 0.00 0.00 99 1008.5
20260905061534 60 122 0.0 0.0 0.00 0.00 0.00 99 1008.6
20260905061033 60 122 0.0 0.0 0.00 0.00 0.00 99 1008.8
20260905060529 61 122 0.0 1.0 0.00 0.00 0.00 99 1008.9
20260905060025 61 273 0.0 2.0 0.00 0.00 0.00 99 1008.8
20260905055523 61 189 0.0 1.0 0.00 0.00 0.00 99 1008.8
20260905055018 61 162 0.0 1.0 0.00 0.00 0.00 98 1008.8
20260905054514 61 324 0.0 0.0 0.00 0.00 0.00 98 1008.7
20260905054009 61 280 0.0 1.0 0.00 0.00 0.00 98 1008.9
20260905053503 62 324 0.0 1.0 0.00 0.00 0.00 98 1009.0
20260905052959 62 299 0.0 1.0 0.00 0.00 0.00 98 1008.8
20260905052459 62 15 0.0 2.0 0.00 0.00 0.00 98 1008.8
20260905051958 62 357 2.0 2.0 0.00 0.00 0.00 98 1008.9
20260905051454 62 9 0.0 2.0 0.00 0.00 0.00 98 1009.0
20260905050951 62 36 0.0 2.0 0.00 0.00 0.00 98 1009.1
20260905050446 63 1 2.0 3.0 0.00 0.00 0.00 97 1009.1
20260905045942 63 293 1.0 2.0 0.00 0.00 0.00 97 1009.1
20260905045437 63 304 0.0 2.0 0.00 0.00 0.00 97 1009.1
20260905044932 63 319 0.0 3.0 0.00 0.00 0.00 97 1009.1
20260905044422 63 330 0.0 1.0 0.00 0.00 0.00 97 1009.2
20260905043921 63 317 0.0 2.0 0.00 0.00 0.00 96 1009.1
20260905043420 64 8 0.0 3.0 0.00 0.00 0.00 96 1009.1
20260905042915 64 31 2.0 3.0 0.00 0.00 0.00 96 1009.2
20260905042410 63 33 0.0 3.0 0.00 0.00 0.00 96 1009.1
20260905041905 63 312 1.0 3.0 0.00 0.00 0.00 97 1009.1
20260905041401 63 28 2.0 4.0 0.00 0.00 0.00 97 1009.0
20260905040900 63 13 2.0 3.0 0.00 0.00 0.00 98 1009.2
20260905040355 63 36 0.0 2.0 0.00 0.00 0.00 99 1009.0
20260905035854 63 222 0.0 2.0 0.00 0.01 0.01 99 1008.9
20260905035350 63 224 0.0 5.0 0.00 0.01 0.01 99 1009.0
20260905034846 63 94 3.0 5.0 0.00 0.01 0.01 99 1009.1
20260905034342 63 115 0.0 2.0 0.00 0.01 0.01 99 1008.9
20260905033840 62 114 0.0 2.0 0.00 0.01 0.01 99 1008.9
20260905033336 62 147 1.0 1.0 0.00 0.01 0.01 99 1008.8
20260905032835 63 23 0.0 1.0 0.00 0.01 0.01 99 1008.8
20260905032331 63 336 0.0 2.0 0.00 0.01 0.01 99 1008.9
20260905031826 63 261 1.0 1.0 0.00 0.01 0.01 99 1009.0
20260905031321 63 176 2.0 2.0 0.00 0.01 0.01 99 1008.9
20260905030816 63 175 1.0 3.0 0.00 0.01 0.01 99 1008.9
20260905030312 63 205 3.0 3.0 0.00 0.01 0.01 99 1008.9
20260905025811 63 198 1.0 3.0 0.00 0.01 0.01 99 1008.6
20260905025307 64 189 0.0 2.0 0.00 0.01 0.01 99 1008.6
20260905024803 64 235 0.0 3.0 0.00 0.01 0.01 99 1008.6
20260905024258 64 125 0.0 1.0 0.00 0.01 0.01 99 1008.9
20260905023753 64 280 2.0 3.0 0.00 0.01 0.01 99 1008.7
20260905023248 64 280 0.0 2.0 0.00 0.01 0.01 99 1008.5
20260905022747 64 229 0.0 2.0 0.00 0.01 0.01 99 1008.7
20260905022243 64 261 1.0 1.0 0.00 0.01 0.01 99 1008.7
20260905021743 64 355 0.0 0.0 0.00 0.01 0.01 98 1008.8
20260905021237 64 295 0.0 0.0 0.00 0.01 0.01 98 1008.8
20260905020732 65 309 0.0 2.0 0.00 0.01 0.01 98 1008.9
20260905020227 65 240 0.0 2.0 0.00 0.01 0.01 98 1008.9
20260905015726 65 293 1.0 2.0 0.00 0.01 0.01 98 1008.9
20260905015221 65 305 0.0 2.0 0.00 0.01 0.01 98 1009.1
20260905014720 65 234 1.0 2.0 0.00 0.01 0.01 98 1009.0
20260905014216 65 300 0.0 1.0 0.00 0.01 0.01 98 1009.1
20260905013711 65 317 0.0 2.0 0.00 0.01 0.01 98 1009.2
20260905013207 65 50 0.0 2.0 0.00 0.01 0.01 97 1009.2
20260905012702 66 259 0.0 2.0 0.00 0.01 0.01 97 1009.3
20260905012158 66 264 0.0 2.0 0.00 0.01 0.01 97 1009.1
20260905011654 66 273 0.0 1.0 0.00 0.01 0.01 97 1009.2
20260905011150 66 263 0.0 2.0 0.00 0.01 0.01 97 1009.2
20260905010644 66 34 0.0 2.0 0.00 0.01 0.01 96 1009.3
20260905010140 66 242 0.0 2.0 0.00 0.01 0.01 96 1009.5
20260905005636 66 24 0.0 3.0 0.00 0.01 0.01 96 1009.4
20260905005131 67 30 0.0 2.0 0.00 0.01 0.01 96 1009.3
20260905004625 67 305 0.0 1.0 0.00 0.01 0.01 96 1009.2
20260905004120 67 295 1.0 2.0 0.00 0.01 0.01 96 1009.1
20260905003616 67 9 0.0 2.0 0.00 0.01 0.01 96 1009.4
20260905003112 67 299 0.0 1.0 0.00 0.01 0.01 96 1009.2
20260905002607 67 295 0.0 1.0 0.00 0.01 0.01 95 1009.3
20260905002101 67 49 0.0 1.0 0.00 0.01 0.01 94 1009.3
20260905001556 68 9 0.0 1.0 0.00 0.01 0.01 93 1009.0
20260905001051 68 23 1.0 2.0 0.00 0.01 0.01 93 1009.0
20260905000546 68 11 1.0 2.0 0.00 0.01 0.01 92 1008.9
20260905000042 68 39 1.0 1.0 0.00 0.01 0.01 91 1008.9
20260904235537 68 33 0.0 1.0 0.00 0.01 0.01 90 1008.9
20260904235037 69 49 0.0 2.0 0.00 0.01 0.01 90 1008.8
20260904234537 69 9 0.0 2.0 0.00 0.01 0.01 89 1008.7
20260904234032 70 138 0.0 1.0 0.00 0.01 0.01 86 1008.6
20260904233527 70 37 0.0 1.0 0.00 0.01 0.01 87 1008.6
20260904233024 71 33 1.0 2.0 0.00 0.01 0.01 85 1008.6
20260904232520 71 23 0.0 2.0 0.00 0.01 0.01 84 1008.7
20260904232017 71 23 0.0 1.0 0.00 0.01 0.01 85 1008.7
20260904231512 72 122 0.0 0.0 0.00 0.01 0.01 84 1008.6
20260904231007 73 79 0.0 1.0 0.00 0.01 0.01 83 1008.6
20260904230506 73 83 0.0 1.0 0.00 0.01 0.01 83 1008.6
20260904230001 73 85 1.0 2.0 0.00 0.01 0.01 82 1008.6
20260904225458 74 73 0.0 2.0 0.00 0.01 0.01 81 1008.7
20260904224953 74 119 0.0 1.0 0.00 0.01 0.01 80 1008.6
20260904224449 75 317 0.0 0.0 0.00 0.01 0.01 77 1008.7
20260904223948 76 317 0.0 0.0 0.00 0.01 0.01 76 1008.5
20260904223447 76 247 0.0 1.0 0.00 0.01 0.01 74 1008.7
20260904222943 77 204 0.0 2.0 0.00 0.01 0.01 69 1008.6
20260904222438 78 355 0.0 2.0 0.00 0.01 0.01 70 1008.5
20260904221932 78 333 2.0 3.0 0.00 0.01 0.01 67 1008.4
20260904221427 78 33 0.0 4.0 0.00 0.01 0.01 66 1008.5
20260904220923 78 79 0.0 3.0 0.00 0.01 0.01 66 1008.4
20260904220421 78 320 1.0 3.0 0.00 0.01 0.01 65 1008.5
20260904215917 78 71 1.0 3.0 0.00 0.01 0.01 65 1008.4
20260904215412 79 261 2.0 2.0 0.00 0.01 0.01 65 1008.4
20260904214908 79 43 2.0 3.0 0.00 0.01 0.01 65 1008.2
20260904214404 79 150 0.0 2.0 0.00 0.01 0.01 67 1008.2
20260904213902 79 150 0.0 2.0 0.00 0.01 0.01 64 1008.2
20260904213357 79 12 2.0 3.0 0.00 0.01 0.01 64 1008.3
20260904212853 79 310 0.0 5.0 0.00 0.01 0.01 63 1008.3
20260904212347 80 50 0.0 3.0 0.00 0.01 0.01 63 1008.5
20260904211842 80 95 2.0 3.0 0.00 0.01 0.01 62 1008.4
20260904211337 80 345 2.0 5.0 0.00 0.01 0.01 61 1008.4
20260904210832 80 286 1.0 6.0 0.00 0.01 0.01 61 1008.6
20260904210326 82 131 1.0 5.0 0.00 0.01 0.01 58 1008.5
20260904205823 82 61 3.0 5.0 0.00 0.01 0.01 57 1008.6
20260904205318 81 164 1.0 8.0 0.00 0.01 0.01 60 1008.6
20260904204815 82 329 3.0 5.0 0.00 0.01 0.01 57 1008.4
20260904204310 82 346 0.0 4.0 0.00 0.01 0.01 58 1008.5
20260904203806 82 316 2.0 9.0 0.00 0.01 0.01 58 1008.4
20260904203302 82 99 4.0 7.0 0.00 0.01 0.01 57 1008.5
20260904202757 83 357 3.0 9.0 0.00 0.01 0.01 56 1008.5
20260904202254 81 305 0.0 2.0 0.00 0.01 0.01 58 1008.5
20260904201744 81 37 4.0 7.0 0.00 0.01 0.01 57 1008.4
20260904201243 81 356 4.0 8.0 0.00 0.01 0.01 57 1008.6
20260904200738 81 201 3.0 5.0 0.00 0.01 0.01 56 1008.5
20260904200233 81 49 3.0 8.0 0.00 0.01 0.01 59 1008.6
20260904195732 82 62 2.0 7.0 0.00 0.01 0.01 54 1008.5
20260904195231 82 59 2.0 8.0 0.00 0.01 0.01 57 1008.5
20260904194726 81 29 3.0 11.0 0.00 0.01 0.01 56 1008.7
20260904194225 82 61 6.0 7.0 0.00 0.01 0.01 53 1008.8
20260904193721 82 34 2.0 4.0 0.00 0.01 0.01 58 1008.6
20260904193216 81 174 1.0 9.0 0.00 0.01 0.01 56 1008.7
20260904192711 82 32 4.0 8.0 0.00 0.01 0.01 54 1008.6
20260904192206 82 30 4.0 5.0 0.00 0.01 0.01 57 1008.6
20260904191703 82 13 3.0 8.0 0.00 0.01 0.01 58 1008.8
20260904191159 81 337 4.0 16.0 0.00 0.01 0.01 57 1009.0
20260904190655 81 62 5.0 11.0 0.00 0.01 0.01 56 1008.8
20260904190151 82 242 3.0 8.0 0.00 0.01 0.01 55 1008.9
20260904185647 82 323 4.0 6.0 0.00 0.01 0.01 57 1008.8
20260904185142 82 11 5.0 8.0 0.00 0.01 0.01 53 1008.9
20260904184640 81 133 2.0 7.0 0.00 0.01 0.01 56 1008.8
20260904184136 81 79 9.0 10.0 0.00 0.01 0.01 56 1009.2
20260904183632 81 175 5.0 8.0 0.00 0.01 0.01 60 1009.1
20260904183126 80 60 4.0 5.0 0.00 0.01 0.01 58 1009.2
20260904182621 81 111 5.0 13.0 0.00 0.01 0.01 57 1009.1
20260904182116 80 118 5.0 9.0 0.00 0.01 0.01 59 1008.9
20260904181612 78 82 2.0 8.0 0.00 0.01 0.01 60 1008.9
20260904181112 80 67 2.0 6.0 0.00 0.01 0.01 61 1009.1
20260904180607 80 267 2.0 7.0 0.00 0.01 0.01 62 1008.9